QPF
0.00 0.00 0.00 0.00 0.02 0.03 0.02 0.01 0.03 0.08 0.08 0.03 0.03 0.01 0.00 0.00 0.00 0.00 0.00 0.00 0.00 0.00 0.00 0.00 0.00 0.00 0.00 0.00 0.00 0.00 0.01 0.01 0.02 0.00 0.00 0.00 0.00 0.00 0.00 0.00 0.00 0.00 0.01
0.00 0.00 0.00 0.00 0.00 0.00 0.01 0.03 0.01 0.01 0.01 0.00 0.00 0.00 0.00 0.00 0.00 0.00 0.00 0.00 0.00 0.00 0.00 0.00 0.00 0.00 0.00 0.00 0.00 0.00 0.00 0.01 0.01 0.00 0.00 0.00 0.00 0.00 0.00 0.00 0.00 0.00 0.00
0.00 0.00 0.00 0.00 0.00 0.00 0.00 0.00 0.00 0.00 0.00 0.00 0.00 0.00 0.00 0.00 0.00 0.00 0.00 0.00 0.00 0.00 0.00 0.00 0.00 0.00 0.00 0.00 0.00 0.00 0.00 0.00 0.01 0.01 0.00 0.00 0.00 0.00 0.00 0.00 0.00 0.00 0.00
0.00 0.00 0.00 0.00 0.00 0.00 0.00 0.00 0.00 0.00 0.00 0.00 0.00 0.00 0.00 0.00 0.00 0.00 0.00 0.00 0.00 0.00 0.00 0.00 0.00 0.00 0.00 0.00 0.00 0.00 0.00 0.00 0.01 0.02 0.01 0.00 0.00 0.01 0.01 0.01 0.01 0.00 0.00
0.00 0.00 0.00 0.00 0.00 0.00 0.00 0.00 0.00 0.00 0.00 0.00 0.00 0.00 0.00 0.00 0.00 0.00 0.00 0.00 0.00 0.00 0.00 0.00 0.00 0.00 0.00 0.00 0.00 0.00 0.00 0.00 0.01 0.01 0.00 0.00 0.00 0.01 0.01 0.01 0.01 0.00 0.00
0.00 0.00 0.00 0.00 0.00 0.00 0.00 0.00 0.00 0.00 0.00 0.00 0.00 0.00 0.00 0.00 0.00 0.00 0.00 0.00 0.00 0.00 0.00 0.00 0.00 0.00 0.00 0.00 0.00 0.00 0.00 0.00 0.00 0.00 0.00 0.00 0.00 0.00 0.01 0.01 0.00 0.00 0.00
0.00 0.00 0.00 0.00 0.00 0.00 0.00 0.00 0.00 0.00 0.00 0.00 0.00 0.00 0.00 0.00 0.00 0.00 0.00 0.00 0.00 0.00 0.00 0.00 0.00 0.00 0.00 0.00 0.00 0.00 0.00 0.00 0.00 0.00 0.00 0.00 0.00 0.00 0.00 0.00 0.00 0.00 0.00
0.00 0.00 0.00 0.00 0.00 0.00 0.00 0.00 0.00 0.00 0.00 0.00 0.00 0.00 0.00 0.00 0.00 0.00 0.00 0.00 0.00 0.00 0.00 0.00 0.00 0.00 0.00 0.00 0.00 0.00 0.00 0.00 0.00 0.00 0.00 0.00 0.00 0.00 0.00 0.00 0.00 0.00 0.00
0.00 0.00 0.00 0.00 0.00 0.00 0.00 0.00 0.00 0.00 0.00 0.00 0.00 0.00 0.00 0.00 0.00 0.00 0.00 0.00 0.00 0.00 0.00 0.00 0.00 0.00 0.00 0.00 0.00 0.00 0.00 0.00 0.00 0.00 0.00 0.00 0.00 0.00 0.00 0.00 0.00 0.00 0.00
0.00 0.00 0.00 0.00 0.00 0.00 0.00 0.00 0.00 0.00 0.00 0.00 0.00 0.00 0.00 0.00 0.00 0.00 0.00 0.00 0.00 0.00 0.00 0.00 0.00 0.00 0.00 0.00 0.00 0.00 0.00 0.00 0.00 0.00 0.00 0.00 0.00 0.00 0.00 0.00 0.00 0.00 0.00
0.00 0.00 0.00 0.00 0.00 0.00 0.00 0.00 0.00 0.00 0.00 0.00 0.00 0.00 0.00 0.00 0.00 0.00 0.00 0.00 0.00 0.00 0.00 0.00 0.00 0.00 0.00 0.00 0.00 0.00 0.00 0.00 0.00 0.00 0.00 0.00 0.00 0.00 0.00 0.00 0.00 0.00 0.00
0.00 0.00 0.00 0.00 0.00 0.00 0.00 0.00 0.00 0.00 0.00 0.00 0.00 0.00 0.00 0.00 0.00 0.00 0.00 0.00 0.00 0.00 0.00 0.00 0.00 0.00 0.00 0.00 0.00 0.00 0.00 0.00 0.00 0.00 0.00 0.00 0.00 0.00 0.00 0.00 0.00 0.00 0.01
0.00 0.00 0.00 0.00 0.00 0.00 0.00 0.00 0.00 0.00 0.00 0.00 0.00 0.00 0.00 0.00 0.00 0.00 0.00 0.00 0.00 0.00 0.00 0.00 0.00 0.00 0.00 0.00 0.00 0.00 0.00 0.00 0.00 0.00 0.00 0.00 0.00 0.00 0.00 0.00 0.00 0.00 0.00
0.00 0.00 0.00 0.00 0.00 0.00 0.00 0.00 0.00 0.00 0.00 0.00 0.00 0.00 0.00 0.00 0.00 0.00 0.00 0.00 0.00 0.00 0.00 0.00 0.00 0.00 0.00 0.00 0.00 0.00 0.00 0.00 0.00 0.00 0.00 0.00 0.00 0.00 0.00 0.00 0.00 0.00 0.00
0.00 0.00 0.00 0.00 0.00 0.00 0.00 0.00 0.00 0.00 0.00 0.00 0.00 0.00 0.00 0.00 0.00 0.00 0.00 0.00 0.00 0.00 0.00 0.00 0.00 0.00 0.00 0.00 0.00 0.00 0.00 0.00 0.00 0.00 0.00 0.00 0.00 0.00 0.00 0.00 0.00 0.01 0.01
0.00 0.00 0.00 0.00 0.00 0.00 0.00 0.00 0.00 0.00 0.00 0.00 0.00 0.00 0.00 0.00 0.00 0.00 0.00 0.00 0.00 0.00 0.00 0.00 0.00 0.00 0.00 0.00 0.00 0.00 0.00 0.00 0.00 0.00 0.00 0.00 0.00 0.00 0.00 0.01 0.01 0.02 0.02
0.00 0.00 0.00 0.00 0.00 0.00 0.00 0.00 0.00 0.00 0.00 0.00 0.00 0.00 0.00 0.00 0.00 0.00 0.00 0.00 0.00 0.00 0.00 0.00 0.00 0.00 0.00 0.00 0.00 0.00 0.00 0.00 0.00 0.00 0.00 0.00 0.00 0.00 0.00 0.00 0.01 0.02 0.02
0.00 0.00 0.00 0.00 0.00 0.00 0.00 0.00 0.00 0.00 0.00 0.00 0.00 0.00 0.00 0.00 0.00 0.00 0.00 0.00 0.00 0.00 0.00 0.00 0.00 0.00 0.00 0.00 0.00 0.00 0.00 0.00 0.00 0.00 0.00 0.00 0.00 0.00 0.00 0.00 0.00 0.02 0.00
0.00 0.00 0.00 0.00 0.00 0.00 0.00 0.00 0.00 0.00 0.00 0.00 0.00 0.00 0.00 0.00 0.00 0.00 0.00 0.00 0.00 0.00 0.00 0.00 0.00 0.00 0.00 0.00 0.00 0.00 0.00 0.00 0.00 0.00 0.00 0.00 0.00 0.00 0.00 0.00 0.00 0.00 0.00
0.00 0.00 0.00 0.00 0.00 0.00 0.00 0.00 0.00 0.00 0.00 0.00 0.00 0.00 0.00 0.00 0.00 0.00 0.00 0.00 0.00 0.00 0.00 0.00 0.00 0.00 0.00 0.00 0.00 0.00 0.00 0.00 0.00 0.00 0.00 0.00 0.00 0.00 0.00 0.00 0.00 0.01 0.01
0.01 0.02 0.00 0.00 0.00 0.00 0.00 0.00 0.00 0.00 0.00 0.00 0.00 0.00 0.00 0.00 0.00 0.00 0.00 0.00 0.00 0.00 0.00 0.00 0.00 0.00 0.00 0.00 0.00 0.00 0.00 0.00 0.00 0.00 0.00 0.00 0.00 0.00 0.00 0.00 0.00 0.00 0.00
0.01 0.01 0.00 0.00 0.00 0.00 0.00 0.00 0.00 0.00 0.00 0.00 0.00 0.01 0.00 0.00 0.00 0.00 0.00 0.00 0.00 0.00 0.00 0.00 0.00 0.00 0.00 0.00 0.00 0.00 0.00 0.00 0.00 0.00 0.00 0.00 0.00 0.00 0.00 0.00 0.00 0.00 0.00
0.01 0.00 0.00 0.00 0.00 0.00 0.01 0.02 0.01 0.01 0.01 0.01 0.00 0.02 0.02 0.00 0.00 0.00 0.00 0.00 0.00 0.00 0.00 0.00 0.00 0.00 0.00 0.00 0.00 0.00 0.00 0.00 0.00 0.00 0.00 0.00 0.00 0.00 0.00 0.00 0.00 0.00 0.00
0.00 0.00 0.01 0.01 0.00 0.00 0.00 0.01 0.00 0.00 0.00 0.00 0.00 0.01 0.00 0.00 0.00 0.00 0.00 0.00 0.00 0.00 0.00 0.00 0.00 0.00 0.00 0.00 0.00 0.00 0.00 0.00 0.00 0.00 0.00 0.00 0.00 0.00 0.00 0.00 0.00 0.00 0.00
0.00 0.00 0.00 0.00 0.00 0.00 0.00 0.00 0.00 0.00 0.00 0.00 0.00 0.00 0.00 0.00 0.00 0.00 0.00 0.00 0.00 0.00 0.00 0.00 0.00 0.00 0.00 0.00 0.00 0.00 0.00 0.00 0.00 0.00 0.00 0.00 0.00 0.00 0.00 0.00 0.00 0.00 0.00
0.00 0.00 0.00 0.00 0.00 0.00 0.00 0.00 0.00 0.00 0.00 0.00 0.00 0.00 0.00 0.00 0.00 0.00 0.00 0.00 0.00 0.00 0.00 0.00 0.00 0.00 0.00 0.00 0.00 0.00 0.00 0.00 0.00 0.00 0.00 0.00 0.00 0.00 0.00 0.00 0.00 0.00 0.00
MSLP
1012.60 1013.44 1013.86 1014.21 1014.52 1015.10 1015.55 1015.77 1015.98 1016.05 1015.99 1016.48 1016.56 1016.90 1017.08 1017.07 1016.95 1016.79 1016.92 1017.04 1017.31 1017.38 1017.30 1017.30 1017.09 1016.92 1016.69 1016.56 1016.37 1016.23 1016.05 1015.97 1015.60 1015.06 1014.96 1014.74 1014.62 1014.37 1014.11 1013.96 1013.82 1013.53 1013.71
1013.32 1014.14 1014.40 1014.72 1015.00 1015.41 1015.82 1015.96 1016.21 1016.43 1016.36 1016.52 1016.60 1016.83 1017.09 1017.19 1017.17 1017.24 1017.27 1017.26 1017.30 1017.13 1016.91 1016.89 1016.75 1016.65 1016.45 1016.33 1016.23 1015.96 1015.78 1015.52 1015.50 1014.99 1014.79 1014.58 1014.33 1013.94 1013.68 1013.48 1013.25 1013.13 1012.92
1013.90 1014.69 1015.00 1015.15 1015.53 1015.80 1015.64 1016.05 1016.36 1016.58 1016.66 1016.85 1017.01 1017.07 1017.16 1017.31 1017.42 1017.36 1017.26 1017.11 1017.01 1016.92 1016.86 1016.80 1016.57 1016.54 1016.38 1016.15 1016.00 1015.73 1015.37 1015.08 1014.88 1014.72 1014.37 1014.10 1013.86 1013.59 1013.32 1013.08 1012.87 1012.68 1012.64
1014.49 1015.14 1015.19 1015.55 1015.58 1015.53 1015.79 1016.22 1016.42 1016.54 1016.86 1017.08 1017.14 1017.39 1017.53 1017.50 1017.47 1017.37 1017.15 1016.95 1016.85 1016.78 1016.64 1016.55 1016.37 1016.23 1016.08 1015.83 1015.55 1015.13 1014.89 1014.65 1014.36 1013.88 1013.64 1013.60 1013.33 1012.84 1012.89 1012.86 1012.51 1012.23 1012.25
1014.59 1014.95 1015.29 1015.23 1015.43 1015.92 1016.18 1016.35 1016.73 1016.71 1016.75 1017.16 1017.54 1017.42 1017.36 1017.30 1017.37 1017.30 1017.07 1016.95 1016.89 1016.68 1016.36 1016.07 1015.86 1015.61 1015.31 1015.06 1014.95 1014.62 1014.45 1014.32 1014.04 1013.81 1013.35 1013.07 1012.74 1012.51 1012.52 1012.25 1012.25 1012.18 1011.87
1014.25 1014.71 1015.16 1015.61 1015.91 1016.31 1016.50 1016.69 1016.67 1016.82 1016.84 1017.36 1017.23 1017.13 1017.11 1017.09 1017.02 1016.85 1016.87 1016.80 1016.67 1016.36 1016.01 1015.62 1015.43 1015.11 1014.78 1014.54 1014.13 1014.08 1013.98 1013.88 1013.67 1013.55 1013.17 1012.84 1012.36 1012.12 1011.76 1011.83 1011.91 1011.82 1011.65
1014.17 1014.74 1015.24 1015.84 1016.26 1016.12 1016.47 1016.53 1016.58 1016.92 1017.06 1017.16 1017.27 1017.13 1017.32 1017.17 1016.91 1016.75 1016.85 1016.81 1016.48 1016.12 1016.01 1015.65 1015.41 1014.99 1014.78 1014.50 1013.97 1013.62 1013.36 1013.24 1013.10 1013.06 1012.94 1012.66 1012.28 1011.90 1011.80 1011.58 1011.50 1011.49 1011.35
1014.41 1014.80 1015.19 1015.62 1015.97 1016.14 1016.32 1016.52 1016.67 1016.96 1017.10 1017.21 1017.08 1017.13 1017.08 1016.98 1017.06 1016.81 1016.75 1016.57 1016.09 1015.70 1015.56 1015.46 1015.38 1015.00 1014.57 1014.51 1014.06 1013.52 1013.07 1012.66 1012.41 1012.42 1012.42 1012.24 1012.03 1011.76 1011.75 1011.54 1011.14 1010.97 1011.11
1014.79 1015.11 1015.38 1015.59 1016.06 1016.47 1016.54 1016.55 1016.76 1016.84 1016.86 1016.87 1016.88 1016.95 1017.06 1017.09 1016.96 1016.66 1016.56 1016.33 1015.91 1015.64 1015.44 1015.24 1015.12 1014.79 1014.60 1014.50 1014.27 1013.63 1012.89 1012.19 1011.73 1011.68 1011.62 1011.50 1011.31 1011.34 1011.41 1011.39 1011.08 1010.93 1010.80
1014.82 1015.27 1015.59 1015.75 1016.01 1016.42 1016.68 1016.95 1016.76 1016.62 1016.72 1016.89 1016.97 1016.99 1017.16 1017.12 1016.94 1016.62 1016.50 1016.33 1015.95 1015.73 1015.34 1015.23 1015.00 1014.81 1014.50 1014.23 1014.08 1013.54 1012.80 1011.94 1011.48 1010.97 1010.86 1010.88 1010.74 1010.60 1010.55 1010.61 1010.50 1010.40 1010.43
1015.09 1015.24 1015.70 1015.98 1016.24 1016.57 1016.73 1016.69 1016.67 1016.66 1016.82 1016.82 1016.97 1016.94 1017.05 1016.95 1016.85 1016.60 1016.62 1016.47 1016.21 1015.92 1015.60 1015.27 1015.07 1014.63 1014.19 1013.69 1013.44 1013.18 1012.60 1011.91 1011.37 1011.19 1010.79 1010.42 1010.09 1009.91 1009.74 1009.68 1009.81 1009.96 1009.87
1015.39 1015.62 1015.92 1016.06 1016.31 1016.57 1016.79 1016.90 1016.96 1016.92 1017.01 1017.11 1017.19 1017.00 1016.72 1016.79 1016.72 1016.61 1016.61 1016.45 1016.36 1016.28 1015.77 1015.31 1014.99 1014.46 1014.10 1013.57 1013.19 1012.64 1012.00 1011.57 1011.20 1010.85 1010.48 1009.91 1009.53 1009.13 1008.90 1008.92 1009.03 1009.17 1009.24
1015.56 1015.80 1015.93 1016.35 1016.53 1016.58 1016.71 1016.90 1017.03 1017.14 1017.25 1017.30 1017.47 1017.32 1016.90 1016.75 1016.70 1016.65 1016.59 1016.36 1016.13 1016.05 1015.67 1015.21 1014.78 1014.37 1013.97 1013.39 1012.96 1012.50 1011.88 1011.40 1010.93 1010.41 1009.99 1009.44 1008.98 1008.57 1008.37 1008.40 1008.41 1008.43 1008.76
1015.91 1016.31 1016.38 1016.49 1016.57 1016.74 1016.99 1017.12 1017.22 1017.37 1017.56 1017.67 1017.59 1017.40 1017.19 1017.02 1016.88 1016.78 1016.61 1016.23 1016.02 1015.79 1015.52 1015.14 1014.79 1014.39 1013.90 1013.48 1012.81 1012.28 1011.85 1011.37 1010.91 1010.36 1009.76 1009.14 1008.50 1008.15 1007.96 1007.85 1007.92 1008.04 1008.40
1016.24 1016.72 1017.04 1017.11 1016.99 1017.03 1017.33 1017.53 1017.51 1017.76 1017.73 1017.67 1017.78 1017.63 1017.46 1017.22 1017.08 1017.04 1016.95 1016.67 1016.46 1016.11 1015.68 1015.14 1014.67 1014.32 1013.92 1013.44 1012.87 1012.20 1011.62 1011.04 1010.57 1010.07 1009.45 1008.92 1008.25 1007.71 1007.42 1007.39 1007.42 1007.65 1007.98
1016.79 1016.90 1017.27 1017.47 1017.39 1017.49 1017.63 1017.87 1017.83 1017.67 1017.67 1017.65 1017.70 1017.70 1017.56 1017.40 1017.29 1017.06 1016.98 1016.77 1016.50 1016.24 1015.87 1015.70 1015.34 1015.00 1014.53 1014.06 1013.47 1012.53 1011.77 1011.21 1010.64 1010.06 1009.35 1008.75 1008.16 1007.58 1007.30 1006.99 1007.09 1007.18 1007.46
1017.50 1017.33 1017.46 1017.54 1017.79 1017.92 1017.91 1017.99 1017.89 1017.87 1017.85 1017.81 1017.77 1017.81 1017.84 1017.59 1017.21 1017.06 1017.03 1016.91 1016.69 1016.30 1016.26 1016.03 1015.77 1015.40 1014.95 1014.40 1013.81 1013.24 1012.51 1011.71 1011.06 1010.29 1009.57 1008.81 1008.19 1007.28 1007.08 1006.85 1006.85 1006.88 1007.17
1018.56 1018.15 1017.80 1017.73 1017.77 1018.04 1018.24 1018.15 1018.10 1018.08 1018.14 1018.15 1017.86 1017.88 1017.77 1017.59 1017.36 1017.23 1017.13 1016.89 1016.94 1016.73 1016.72 1016.55 1016.20 1015.77 1015.29 1014.74 1014.04 1013.45 1012.69 1011.90 1011.19 1010.59 1009.84 1009.11 1008.24 1007.43 1007.07 1006.70 1006.47 1006.46 1007.23
1017.83 1017.13 1017.47 1017.87 1018.04 1018.20 1018.34 1018.25 1018.27 1018.42 1018.51 1018.44 1018.27 1017.93 1017.79 1017.60 1017.58 1017.51 1017.54 1017.70 1017.55 1017.25 1017.09 1016.82 1016.52 1016.10 1015.59 1015.00 1014.36 1013.71 1013.05 1012.32 1011.69 1010.94 1010.17 1009.44 1008.63 1007.94 1007.23 1006.42 1006.14 1006.54 1007.16
1017.71 1017.58 1017.47 1017.85 1018.28 1018.26 1018.38 1018.43 1018.60 1018.72 1018.69 1018.61 1018.42 1018.32 1018.18 1017.82 1017.69 1017.83 1017.99 1017.93 1017.74 1017.61 1017.46 1017.16 1016.87 1016.46 1015.96 1015.37 1014.73 1014.08 1013.26 1012.56 1011.94 1011.32 1010.68 1009.97 1009.28 1008.57 1008.21 1007.81 1007.41 1007.37 1008.14
1017.72 1017.80 1017.74 1017.89 1018.29 1018.26 1018.37 1018.51 1018.63 1018.60 1018.50 1018.38 1018.24 1018.18 1018.23 1018.25 1018.12 1018.02 1018.01 1018.07 1018.01 1017.87 1017.73 1017.52 1017.20 1016.81 1016.31 1015.82 1015.27 1014.52 1013.82 1013.15 1012.55 1011.98 1011.33 1010.58 1010.02 1009.51 1009.04 1008.89 1008.97 1009.34 1009.73
1017.91 1018.01 1017.98 1018.11 1018.28 1018.41 1018.48 1018.75 1018.81 1018.69 1018.61 1018.42 1018.01 1018.03 1018.06 1017.94 1018.02 1018.07 1018.16 1018.19 1018.19 1018.11 1018.00 1017.81 1017.49 1017.16 1016.75 1016.39 1015.86 1015.13 1014.46 1013.79 1013.14 1012.57 1011.96 1011.37 1010.68 1010.24 1009.86 1009.80 1010.02 1010.28 1010.74
1017.76 1017.80 1017.98 1018.15 1018.33 1018.50 1018.71 1018.65 1018.58 1018.50 1018.44 1018.30 1018.08 1018.04 1017.92 1017.97 1017.99 1018.13 1018.27 1018.33 1018.32 1018.24 1018.17 1018.02 1017.76 1017.36 1016.95 1016.67 1016.13 1015.66 1015.18 1014.59 1014.04 1013.26 1012.50 1011.94 1011.44 1011.05 1010.79 1010.80 1010.85 1011.05 1011.54
1018.01 1017.93 1017.99 1018.27 1018.34 1018.37 1018.46 1018.52 1018.51 1018.49 1018.42 1018.38 1018.35 1018.26 1018.25 1018.28 1018.35 1018.40 1018.50 1018.56 1018.55 1018.49 1018.45 1018.33 1018.17 1017.84 1017.41 1016.91 1016.37 1015.80 1015.35 1014.95 1014.22 1013.37 1012.77 1012.39 1012.05 1011.79 1011.62 1011.61 1011.63 1011.93 1012.26
1018.86 1018.95 1018.91 1018.90 1018.85 1018.89 1018.81 1018.77 1018.74 1018.86 1018.86 1018.97 1018.97 1018.91 1018.91 1018.79 1019.08 1019.06 1018.85 1018.91 1018.94 1018.88 1018.79 1018.67 1018.50 1018.20 1017.80 1017.32 1016.84 1016.27 1015.71 1015.00 1014.35 1013.85 1013.04 1012.69 1012.59 1012.42 1012.35 1012.19 1012.30 1012.62 1012.99
1019.79 1019.79 1019.85 1019.80 1019.74 1019.75 1019.72 1019.67 1019.53 1019.50 1019.53 1019.51 1019.59 1019.54 1019.50 1019.66 1019.77 1019.64 1019.46 1019.49 1019.43 1019.27 1019.14 1018.97 1018.74 1018.46 1018.09 1017.62 1017.17 1016.70 1016.05 1015.32 1014.65 1014.04 1013.44 1013.05 1012.93 1012.94 1012.82 1012.76 1012.88 1013.00 1013.22
Thickness
5732 5723 5718 5713 5707 5697 5689 5682 5677 5674 5672 5663 5658 5651 5644 5639 5635 5632 5626 5619 5611 5605 5599 5593 5589 5586 5582 5579 5576 5573 5571 5567 5567 5574 5573 5573 5573 5574 5577 5579 5583 5584 5584
5717 5709 5705 5699 5693 5686 5679 5674 5669 5663 5660 5654 5648 5641 5634 5628 5622 5616 5612 5606 5599 5593 5588 5582 5577 5572 5567 5563 5559 5558 5556 5555 5553 5557 5559 5558 5558 5561 5566 5570 5575 5576 5577
5705 5696 5691 5686 5678 5673 5672 5665 5658 5652 5647 5640 5633 5629 5623 5616 5609 5603 5598 5593 5587 5581 5573 5566 5560 5553 5549 5546 5541 5539 5539 5539 5539 5542 5544 5546 5546 5547 5552 5558 5562 5566 5568
5691 5684 5680 5673 5670 5668 5663 5655 5648 5642 5634 5627 5622 5615 5607 5601 5595 5590 5587 5581 5574 5566 5557 5549 5542 5534 5528 5525 5524 5524 5524 5525 5526 5530 5532 5532 5535 5538 5537 5540 5549 5554 5559
5681 5676 5669 5668 5663 5655 5649 5644 5635 5631 5626 5617 5608 5604 5598 5592 5585 5579 5573 5566 5557 5551 5544 5536 5526 5519 5517 5514 5512 5512 5511 5511 5513 5513 5518 5519 5522 5524 5524 5529 5531 5536 5544
5674 5668 5662 5655 5649 5642 5636 5629 5626 5621 5617 5607 5601 5596 5588 5579 5573 5566 5560 5554 5548 5542 5534 5525 5513 5509 5510 5507 5505 5503 5503 5503 5504 5503 5506 5505 5509 5512 5515 5517 5520 5524 5531
5667 5659 5652 5643 5635 5633 5627 5623 5618 5610 5602 5594 5587 5581 5569 5564 5561 5557 5550 5543 5539 5532 5521 5515 5510 5509 5504 5501 5502 5501 5499 5496 5495 5493 5492 5491 5495 5496 5501 5505 5508 5514 5519
5655 5649 5643 5636 5630 5625 5620 5613 5607 5597 5588 5579 5574 5567 5562 5557 5550 5546 5540 5535 5531 5525 5518 5511 5506 5503 5501 5497 5497 5497 5496 5494 5490 5487 5485 5482 5482 5483 5484 5489 5496 5502 5506
5641 5636 5632 5629 5620 5611 5606 5600 5589 5581 5577 5572 5565 5558 5551 5544 5540 5538 5532 5528 5524 5517 5512 5507 5504 5501 5496 5491 5489 5489 5491 5490 5485 5481 5478 5476 5474 5473 5472 5475 5481 5486 5495
5632 5625 5619 5613 5606 5597 5589 5580 5578 5575 5568 5560 5551 5545 5538 5534 5531 5528 5523 5519 5514 5509 5506 5502 5498 5495 5491 5488 5485 5482 5482 5483 5480 5478 5474 5471 5468 5469 5467 5466 5471 5478 5483
5619 5614 5606 5599 5593 5584 5577 5573 5568 5562 5553 5547 5540 5533 5528 5526 5522 5519 5513 5509 5504 5500 5498 5495 5492 5490 5487 5486 5481 5477 5475 5474 5471 5468 5466 5465 5465 5464 5462 5461 5464 5468 5474
5606 5599 5592 5588 5580 5572 5565 5559 5552 5547 5541 5534 5525 5522 5520 5517 5512 5508 5503 5499 5493 5489 5489 5488 5486 5484 5481 5479 5476 5472 5468 5465 5463 5462 5461 5462 5461 5462 5461 5459 5461 5464 5468
5592 5586 5581 5572 5565 5560 5555 5548 5540 5533 5525 5519 5512 5510 5509 5506 5501 5497 5492 5489 5487 5482 5482 5480 5478 5476 5474 5473 5469 5462 5460 5459 5458 5458 5458 5460 5459 5458 5457 5456 5458 5460 5462
5578 5569 5563 5557 5552 5545 5538 5531 5524 5517 5510 5506 5502 5499 5495 5492 5489 5486 5483 5482 5480 5477 5474 5472 5470 5469 5467 5464 5462 5458 5454 5454 5454 5454 5454 5455 5455 5453 5453 5453 5454 5456 5458
5558 5550 5543 5538 5533 5528 5520 5512 5509 5502 5498 5495 5489 5485 5483 5481 5478 5472 5469 5469 5467 5465 5463 5464 5465 5462 5459 5457 5454 5454 5453 5452 5451 5451 5452 5451 5451 5453 5452 5450 5451 5453 5455
5541 5535 5526 5518 5514 5509 5503 5499 5494 5490 5486 5483 5478 5473 5471 5467 5464 5461 5459 5457 5455 5455 5456 5454 5452 5449 5448 5445 5444 5445 5448 5447 5446 5446 5449 5450 5449 5450 5448 5449 5450 5454 5456
5523 5518 5511 5508 5500 5495 5492 5490 5486 5480 5476 5472 5466 5461 5457 5455 5455 5454 5451 5450 5448 5448 5446 5445 5443 5440 5437 5436 5435 5435 5435 5437 5438 5440 5444 5448 5447 5450 5449 5450 5451 5455 5457
5501 5498 5496 5492 5490 5484 5480 5478 5474 5470 5465 5460 5457 5452 5450 5447 5447 5445 5444 5444 5441 5439 5436 5434 5432 5431 5429 5428 5429 5428 5429 5431 5432 5433 5438 5442 5448 5451 5451 5451 5456 5460 5455
5493 5494 5487 5482 5478 5473 5469 5467 5463 5458 5453 5450 5448 5447 5444 5441 5438 5436 5434 5432 5430 5429 5428 5426 5425 5424 5424 5423 5422 5422 5421 5422 5424 5428 5433 5438 5443 5447 5453 5459 5462 5460 5459
5480 5476 5472 5470 5464 5464 5461 5458 5453 5449 5447 5443 5442 5439 5435 5434 5433 5430 5426 5424 5423 5422 5421 5421 5420 5419 5419 5417 5416 5416 5417 5418 5420 5423 5428 5434 5438 5444 5449 5453 5459 5462 5457
5468 5464 5464 5463 5458 5460 5457 5454 5449 5446 5444 5441 5438 5434 5426 5426 5426 5424 5421 5419 5417 5417 5417 5417 5416 5415 5414 5412 5412 5413 5413 5414 5415 5418 5422 5429 5435 5438 5445 5448 5449 5448 5446
5466 5464 5463 5460 5457 5456 5453 5447 5443 5441 5439 5438 5438 5433 5427 5427 5423 5420 5418 5416 5415 5415 5414 5413 5413 5411 5410 5407 5407 5408 5409 5411 5412 5414 5418 5423 5430 5435 5439 5442 5443 5444 5445
5471 5468 5464 5461 5457 5454 5449 5446 5444 5441 5438 5436 5434 5430 5428 5424 5422 5420 5417 5416 5415 5414 5413 5412 5411 5411 5409 5408 5407 5407 5406 5407 5407 5410 5414 5418 5423 5429 5433 5437 5440 5443 5443
5472 5469 5466 5461 5458 5457 5452 5448 5444 5439 5437 5433 5429 5426 5423 5422 5421 5420 5418 5417 5415 5414 5413 5412 5410 5410 5409 5409 5410 5410 5409 5409 5410 5411 5412 5414 5417 5420 5426 5430 5434 5435 5437
5468 5463 5459 5457 5455 5452 5450 5447 5442 5438 5434 5430 5426 5423 5422 5421 5418 5418 5419 5417 5415 5414 5414 5413 5412 5411 5410 5410 5411 5412 5413 5415 5415 5414 5413 5412 5412 5414 5417 5423 5427 5429 5428
5464 5459 5455 5453 5450 5447 5444 5442 5439 5436 5432 5429 5426 5424 5423 5420 5419 5419 5419 5417 5415 5415 5414 5414 5413 5413 5413 5413 5414 5415 5417 5419 5419 5418 5416 5415 5413 5412 5414 5417 5420 5424 5428